Wind_Speed
19 17 16 15 14 14 13 13 13 12 12 11 10 9 9 8 8 7 7 7 6 6 5 5 5 5 4 5 5 6 6 7 7 7 7 8 8 8 9 9 10 10 10
21 19 18 17 16 15 15 14 14 13 12 12 11 10 10 9 9 8 8 8 8 7 7 7 6 6 6 6 6 7 8 8 8 9 9 10 10 10 11 11 11 11 12
23 22 20 19 18 17 16 15 15 14 13 13 12 11 10 10 10 9 9 9 9 8 8 8 8 7 8 8 8 8 9 9 10 10 11 11 11 12 12 13 13 13 13
25 23 22 21 19 19 18 16 16 15 14 14 13 12 12 11 10 10 10 10 10 9 9 9 9 9 9 9 10 10 10 11 11 12 12 12 13 13 14 14 14 14 15
27 25 24 23 21 20 19 18 17 16 15 15 14 14 13 12 12 11 11 11 11 11 11 10 11 11 11 11 11 11 12 12 13 14 14 15 15 15 15 15 16 16 16
29 27 26 24 23 22 21 19 18 17 16 16 15 15 13 13 13 13 12 12 12 12 12 12 12 12 12 12 12 12 13 14 14 15 16 16 17 17 17 17 17 17 18
31 29 27 26 25 24 22 20 19 18 18 17 17 16 15 14 14 14 13 13 13 13 13 13 13 13 13 13 13 14 14 15 16 16 17 18 18 19 19 19 19 19 19
32 30 29 28 26 25 24 22 21 19 18 18 18 17 17 16 16 16 14 14 14 14 14 14 14 14 14 14 15 15 16 17 17 18 18 19 19 19 19 19 19 19 19
34 32 31 29 28 27 25 24 22 21 20 20 19 19 18 17 17 16 16 16 15 15 15 15 15 15 16 16 17 17 18 18 19 19 19 19 20 19 20 20 20 20 20
34 33 32 31 29 28 27 25 24 23 22 22 21 20 20 19 18 17 17 17 17 16 17 17 17 18 18 19 19 20 20 20 20 20 20 20 20 20 20 21 20 21 21
36 34 33 32 30 29 27 26 25 24 23 23 22 22 21 20 19 19 19 19 19 19 19 19 20 20 20 20 21 21 21 21 21 21 21 21 22 21 21 21 22 22 22
37 35 34 33 32 30 28 27 27 26 24 24 23 23 23 21 20 20 20 20 20 20 20 21 22 22 21 21 22 22 22 22 22 22 23 23 23 23 23 23 23 24 24
37 36 34 33 32 31 30 28 28 26 25 24 24 24 24 23 21 21 21 21 22 22 22 22 23 23 22 22 22 22 22 23 24 24 25 25 25 25 25 25 25 25 25
37 36 35 34 32 32 31 30 29 28 27 26 25 25 25 24 23 23 23 23 23 23 24 24 24 24 23 23 24 24 24 25 25 26 26 26 26 27 27 26 27 27 27
37 36 36 34 33 32 32 30 30 29 28 27 27 27 26 26 25 25 25 25 24 24 25 25 25 25 25 25 25 26 26 27 27 27 27 27 28 28 27 27 27 27 28
37 36 36 35 34 33 32 32 30 30 29 28 28 28 28 27 25 26 26 26 26 25 26 26 27 27 27 27 27 28 28 28 28 28 28 28 28 28 27 27 27 28 28
37 36 35 34 34 33 33 32 32 30 29 29 29 29 29 29 28 26 27 27 27 27 27 27 28 28 29 29 29 29 29 29 29 29 29 28 28 28 28 28 28 29 29
36 34 34 34 34 34 34 33 32 31 30 30 29 29 30 30 31 29 28 28 28 28 28 28 28 29 30 30 30 31 30 30 30 29 30 30 30 30 30 30 30 30 30
35 33 33 33 34 34 34 34 33 32 31 31 31 31 31 32 32 32 31 30 29 30 30 30 30 30 31 32 32 32 32 31 30 30 30 30 30 30 30 31 31 31 32
35 34 32 33 33 33 34 34 34 34 34 33 33 33 33 33 33 32 31 31 31 31 32 32 32 32 33 33 33 33 32 32 31 31 31 31 31 32 31 31 32 33 33
35 35 34 33 32 32 32 33 34 35 35 35 34 33 33 34 34 34 32 33 33 33 33 33 33 33 33 32 32 32 33 32 32 33 33 33 33 33 33 34 34 35 35
34 34 34 33 32 32 32 33 35 35 35 36 35 35 35 34 34 36 35 34 33 33 33 32 32 32 32 31 31 32 33 34 34 34 35 35 35 36 36 37 37 38 38
32 31 31 32 32 32 33 33 34 35 35 36 36 35 34 34 35 36 38 35 34 35 34 33 32 32 32 33 33 33 34 35 35 36 36 37 38 38 39 40 40 40 41
31 31 31 31 32 32 33 34 34 34 35 35 35 35 34 35 36 37 38 37 35 35 35 34 35 35 35 35 36 36 36 36 37 37 38 39 40 41 41 42 42 43 43
28 29 29 30 31 31 32 32 33 34 34 35 35 36 36 36 36 36 37 39 37 36 36 36 36 36 37 37 38 38 39 39 40 40 40 41 42 43 43 44 44 45 45
27 28 28 29 29 29 30 31 32 33 34 34 35 36 37 37 37 37 38 39 39 39 38 37 37 37 38 39 40 40 40 41 41 42 42 42 43 44 45 46 47 47 48
Wind_Direction
228 227 228 228 229 229 227 227 224 221 220 220 220 223 226 230 232 234 237 238 241 244 247 251 258 267 274 279 285 289 292 292 292 292 293 293 292 292 293 294 293 292 291
228 228 228 229 230 230 228 228 227 225 223 222 225 227 230 233 235 239 242 244 246 248 251 254 260 266 272 278 282 287 289 290 289 291 291 291 290 289 288 289 290 290 290
228 229 229 229 230 230 228 228 229 228 226 225 227 230 234 237 240 243 246 248 249 252 254 258 262 267 272 277 282 286 289 290 290 292 291 291 289 288 289 289 289 288 288
228 229 229 229 230 230 230 231 231 229 227 228 230 232 236 239 244 247 249 250 251 254 258 261 265 269 273 277 282 285 287 289 290 291 291 289 288 288 288 289 289 288 288
227 227 229 229 230 229 230 232 233 232 232 232 232 234 239 241 246 249 251 253 255 257 260 262 266 270 273 277 282 285 288 290 290 290 290 290 288 288 288 288 288 288 288
227 226 228 229 229 229 230 234 235 234 234 235 234 236 242 245 248 251 254 256 257 259 261 264 268 271 274 277 282 286 289 291 292 291 291 290 289 288 287 287 288 288 288
226 225 226 228 227 229 230 232 235 236 236 236 237 239 244 249 252 253 255 257 259 260 263 267 270 271 274 278 282 286 290 293 293 293 293 292 290 289 288 287 286 287 288
224 224 225 227 227 228 229 231 234 235 237 237 238 242 247 251 252 253 254 257 259 262 265 269 270 272 275 279 283 287 291 294 295 296 296 294 292 290 288 287 287 287 288
222 223 224 226 227 228 230 231 233 235 237 239 241 245 248 251 252 253 256 258 260 263 267 269 271 273 276 280 284 287 290 292 293 294 296 295 293 291 289 288 287 287 288
221 223 224 226 227 228 230 231 233 235 238 239 242 245 248 250 251 252 257 258 260 264 267 269 272 274 277 280 284 287 289 290 290 291 292 292 291 290 290 289 288 289 289
220 221 222 224 226 227 229 231 233 235 237 240 242 245 248 250 251 253 256 258 260 264 267 270 273 275 277 281 283 285 286 287 288 290 290 290 290 290 289 288 288 289 290
218 220 222 223 225 227 230 232 234 236 239 242 244 245 248 252 253 254 256 259 261 264 267 270 273 276 278 281 283 284 284 285 287 289 289 290 290 289 288 288 288 288 289
217 219 222 224 226 227 230 233 235 237 240 242 244 246 248 252 256 256 258 260 263 265 268 271 273 277 278 280 282 283 284 286 287 288 288 289 289 288 288 288 287 288 289
215 219 222 224 227 229 231 234 237 239 240 243 245 248 250 253 257 259 260 261 265 267 269 271 273 276 278 279 281 283 285 287 287 287 287 288 288 288 287 287 287 288 288
214 218 222 225 228 230 232 234 236 238 241 244 247 249 252 255 258 260 261 261 264 268 270 272 273 275 278 279 281 284 286 287 287 287 287 288 288 288 287 287 287 287 288
215 219 222 225 228 230 233 234 236 238 241 244 247 250 252 254 257 261 262 263 266 269 270 273 274 275 277 279 281 284 286 287 287 288 288 287 287 287 286 286 287 287 288
216 220 223 226 228 231 234 236 238 240 243 245 248 251 253 255 257 261 265 266 268 270 272 274 275 276 278 279 281 283 285 285 286 287 287 287 286 286 286 286 286 287 288
216 220 224 227 230 232 235 238 239 242 245 247 249 252 255 258 259 262 266 269 269 270 272 274 275 277 278 280 282 283 284 284 285 285 286 286 286 286 286 286 286 287 287
218 222 226 229 231 234 237 238 240 242 246 249 251 255 257 259 261 264 266 269 270 270 272 274 275 277 278 280 281 282 283 283 283 284 285 286 285 286 286 286 286 286 287
220 225 228 232 235 237 239 239 240 242 246 250 254 257 257 259 261 263 266 268 270 272 273 274 276 278 279 280 281 281 281 281 283 284 285 285 285 286 285 285 285 286 287
223 228 232 235 237 239 241 240 242 244 247 251 254 257 259 259 259 261 265 267 270 271 272 274 276 278 280 281 281 281 281 280 282 284 284 284 285 285 285 285 286 286 286
225 231 234 237 238 240 244 245 248 249 251 254 256 259 262 261 261 261 265 268 271 272 272 275 277 278 278 280 281 281 280 281 282 284 284 285 285 285 285 285 286 286 286
227 233 235 238 239 242 245 248 251 250 253 256 257 260 262 263 264 267 268 269 269 271 273 274 277 277 278 280 281 281 281 281 281 283 284 285 285 285 285 285 285 286 286
232 236 239 241 242 245 248 250 252 254 255 256 258 260 262 266 269 270 270 269 270 271 273 275 275 277 278 279 281 282 282 283 282 282 283 284 285 285 284 284 284 285 285
235 238 241 243 246 249 252 254 255 257 258 259 261 262 265 268 269 270 269 269 271 272 274 276 278 278 279 280 281 282 283 282 282 283 283 284 285 285 285 284 284 284 285
241 245 246 248 252 255 257 258 260 262 264 264 264 266 268 269 270 270 270 273 274 275 276 277 278 280 280 281 281 281 282 283 283 283 284 284 285 285 285 285 285 285 285
Height
5850 5852 5853 5855 5856 5857 5858 5859 5860 5861 5862 5863 5864 5865 5866 5866 5867 5868 5868 5868 5869 5869 5869 5869 5870 5870 5870 5870 5870 5870 5869 5869 5869 5869 5869 5868 5868 5868 5868 5867 5867 5867 5866
5847 5849 5850 5852 5853 5855 5856 5857 5858 5859 5861 5862 5863 5864 5864 5865 5866 5866 5867 5867 5868 5868 5868 5868 5869 5869 5869 5869 5869 5868 5868 5868 5868 5868 5867 5867 5867 5866 5866 5866 5865 5865 5865
5843 5845 5847 5849 5850 5852 5853 5855 5856 5857 5859 5860 5861 5862 5863 5864 5864 5865 5865 5866 5866 5866 5867 5867 5867 5867 5867 5867 5867 5867 5867 5867 5866 5866 5866 5865 5865 5864 5864 5864 5863 5863 5863
5838 5841 5843 5845 5847 5849 5851 5852 5854 5855 5857 5858 5859 5860 5861 5862 5863 5863 5864 5864 5865 5865 5865 5866 5866 5866 5866 5866 5866 5865 5865 5865 5864 5864 5864 5863 5863 5862 5862 5861 5861 5861 5860
5834 5837 5840 5842 5844 5846 5848 5850 5851 5853 5854 5856 5857 5858 5859 5860 5861 5861 5862 5862 5863 5863 5864 5864 5864 5864 5864 5864 5864 5863 5863 5863 5862 5862 5861 5861 5860 5860 5859 5859 5858 5858 5857
5829 5833 5836 5838 5840 5842 5845 5847 5848 5850 5851 5853 5854 5856 5857 5858 5858 5859 5859 5860 5861 5861 5861 5862 5862 5862 5862 5861 5861 5861 5861 5860 5860 5859 5859 5858 5857 5856 5856 5856 5855 5855 5854
5824 5828 5831 5834 5836 5839 5841 5843 5845 5847 5849 5850 5852 5853 5854 5855 5856 5856 5857 5858 5858 5859 5859 5859 5859 5859 5859 5859 5859 5859 5858 5858 5857 5856 5855 5854 5854 5853 5852 5852 5852 5851 5850
5819 5823 5827 5830 5832 5835 5837 5840 5842 5844 5846 5847 5849 5850 5851 5852 5853 5854 5854 5855 5856 5856 5856 5856 5856 5856 5856 5856 5856 5856 5855 5855 5854 5853 5852 5851 5850 5849 5848 5848 5848 5847 5847
5814 5818 5822 5825 5828 5831 5833 5836 5838 5840 5842 5844 5846 5847 5848 5849 5850 5851 5851 5852 5853 5853 5853 5854 5853 5853 5853 5853 5853 5852 5852 5851 5850 5849 5848 5847 5846 5845 5845 5844 5844 5843 5843
5808 5813 5817 5820 5824 5827 5829 5832 5834 5837 5839 5840 5842 5843 5845 5846 5847 5847 5848 5849 5850 5850 5850 5850 5850 5850 5850 5850 5849 5849 5848 5847 5847 5846 5845 5844 5843 5842 5841 5840 5840 5839 5839
5803 5807 5812 5815 5819 5822 5825 5828 5830 5833 5835 5836 5838 5840 5841 5842 5843 5844 5845 5845 5846 5846 5847 5847 5847 5846 5846 5846 5846 5845 5844 5843 5843 5842 5841 5840 5839 5838 5837 5836 5836 5835 5834
5797 5802 5807 5811 5814 5818 5821 5824 5826 5829 5831 5833 5834 5836 5837 5838 5839 5840 5841 5841 5842 5842 5843 5843 5843 5843 5842 5842 5842 5841 5840 5839 5839 5838 5837 5836 5835 5834 5833 5832 5831 5830 5829
5792 5797 5802 5806 5810 5813 5816 5819 5822 5824 5827 5828 5830 5832 5833 5834 5836 5836 5837 5837 5838 5838 5839 5838 5838 5838 5838 5838 5837 5837 5836 5835 5834 5834 5832 5831 5830 5829 5828 5827 5826 5825 5824
5787 5792 5797 5801 5805 5808 5811 5814 5817 5820 5822 5824 5826 5827 5829 5830 5831 5832 5833 5833 5834 5834 5834 5834 5834 5834 5833 5833 5833 5832 5831 5831 5830 5829 5827 5826 5825 5824 5823 5822 5821 5820 5819
5783 5788 5792 5796 5800 5803 5807 5810 5812 5815 5817 5819 5821 5823 5824 5826 5827 5827 5828 5828 5829 5829 5829 5830 5829 5829 5829 5828 5828 5827 5826 5825 5824 5823 5822 5821 5820 5818 5817 5816 5815 5814 5813
5778 5783 5787 5791 5795 5798 5802 5805 5807 5810 5812 5814 5816 5818 5819 5820 5821 5822 5823 5823 5824 5824 5824 5824 5824 5824 5823 5823 5822 5822 5821 5820 5819 5817 5816 5815 5814 5813 5812 5810 5809 5808 5807
5774 5778 5782 5787 5790 5793 5796 5799 5802 5805 5807 5809 5811 5812 5813 5815 5816 5817 5818 5818 5818 5818 5819 5819 5819 5818 5818 5817 5817 5816 5815 5814 5813 5811 5810 5809 5808 5807 5806 5804 5803 5802 5801
5770 5774 5778 5782 5785 5788 5791 5794 5797 5799 5802 5804 5805 5807 5808 5809 5810 5811 5812 5813 5813 5813 5813 5813 5813 5812 5812 5811 5810 5810 5809 5808 5806 5805 5804 5803 5802 5801 5799 5798 5797 5795 5794
5766 5770 5774 5777 5780 5783 5786 5789 5791 5794 5796 5797 5799 5801 5802 5803 5804 5805 5806 5806 5806 5806 5806 5806 5806 5806 5805 5805 5804 5803 5802 5801 5800 5799 5798 5796 5795 5794 5793 5791 5790 5789 5787
5762 5766 5769 5772 5775 5778 5780 5783 5786 5788 5790 5791 5793 5795 5796 5797 5798 5799 5799 5800 5800 5800 5800 5800 5800 5799 5798 5798 5797 5796 5795 5794 5793 5792 5791 5790 5788 5787 5786 5784 5783 5782 5780
5758 5761 5764 5767 5770 5773 5775 5777 5780 5782 5784 5785 5787 5788 5789 5790 5791 5792 5792 5793 5793 5793 5793 5793 5793 5792 5791 5791 5790 5789 5788 5787 5786 5785 5784 5783 5781 5780 5778 5777 5776 5774 5772
5753 5757 5760 5762 5765 5768 5770 5772 5774 5776 5777 5779 5780 5781 5782 5783 5784 5784 5785 5786 5786 5786 5786 5785 5785 5785 5784 5783 5782 5782 5781 5781 5779 5778 5776 5775 5774 5772 5771 5769 5767 5766 5764
5749 5752 5755 5758 5760 5762 5764 5766 5768 5770 5771 5773 5774 5775 5775 5776 5776 5777 5778 5778 5778 5778 5778 5778 5777 5777 5776 5776 5775 5774 5773 5772 5772 5770 5768 5767 5765 5764 5762 5760 5758 5756 5755
5746 5748 5750 5753 5755 5757 5759 5760 5762 5763 5765 5766 5767 5768 5769 5769 5769 5769 5770 5770 5770 5770 5770 5769 5769 5769 5768 5767 5766 5765 5764 5763 5762 5761 5760 5758 5756 5754 5752 5750 5748 5746 5744
5741 5744 5746 5748 5750 5751 5753 5754 5755 5756 5758 5759 5760 5760 5761 5761 5761 5761 5761 5762 5762 5761 5761 5760 5760 5760 5759 5758 5757 5756 5754 5753 5752 5751 5750 5749 5747 5744 5742 5740 5738 5736 5733
5737 5739 5741 5742 5744 5745 5746 5747 5749 5750 5750 5751 5752 5752 5753 5753 5753 5753 5753 5753 5752 5752 5752 5751 5751 5750 5750 5749 5748 5746 5745 5743 5742 5741 5739 5738 5736 5734 5731 5729 5727 5725 5722